�������l�o���
Date,Time,MP-1(��Sv/h),MP-2(��Sv/h),MP-3(��Sv/h),MP-4(��Sv/h),MP-5(��Sv/h),MP-6(��Sv/h),MP-7(��Sv/h),MP-8(��Sv/h),����,����(m/s),���J
2024/04/12,00:00,0.495,0.757,0.478,0.921,0.655,0.310,0.543,0.510,�쐼,2.3,��
2024/04/12,00:10,0.495,0.754,0.476,0.920,0.658,0.310,0.543,0.511,�쐼,2.8,��
2024/04/12,00:20,0.494,0.754,0.475,0.918,0.657,0.310,0.542,0.511,�쐼,3.3,��
2024/04/12,00:30,0.496,0.754,0.477,0.920,0.656,0.310,0.542,0.511,�쐼,3.0,��
2024/04/12,00:40,0.494,0.755,0.476,0.921,0.656,0.310,0.543,0.510,��쐼,3.1,��
2024/04/12,00:50,0.493,0.752,0.477,0.919,0.656,0.310,0.544,0.511,��쐼,3.0,��
2024/04/12,01:00,0.493,0.754,0.476,0.918,0.655,0.309,0.545,0.510,��쐼,2.8,��
2024/04/12,01:10,0.492,0.754,0.476,0.920,0.658,0.310,0.543,0.510,��쐼,2.5,��
2024/04/12,01:20,0.494,0.754,0.477,0.917,0.657,0.309,0.543,0.509,��쓌,2.3,��
2024/04/12,01:30,0.494,0.755,0.477,0.920,0.657,0.309,0.543,0.511,��쓌,2.2,��
2024/04/12,01:40,0.493,0.752,0.476,0.922,0.657,0.310,0.542,0.511,��,2.3,��
2024/04/12,01:50,0.495,0.755,0.477,0.920,0.658,0.309,0.542,0.509,��쐼,3.6,��
2024/04/12,02:00,0.494,0.755,0.477,0.920,0.657,0.310,0.543,0.511,��쐼,3.9,��
2024/04/12,02:10,0.494,0.753,0.475,0.920,0.656,0.310,0.542,0.511,��쐼,4.2,��
2024/04/12,02:20,0.494,0.755,0.475,0.922,0.657,0.309,0.543,0.510,��쐼,4.2,��
2024/04/12,02:30,0.494,0.753,0.477,0.920,0.658,0.310,0.543,0.511,��,4.0,��
2024/04/12,02:40,0.495,0.754,0.477,0.918,0.658,0.310,0.543,0.510,��,4.2,��
2024/04/12,02:50,0.495,0.755,0.477,0.920,0.657,0.310,0.543,0.510,��,5.0,��
2024/04/12,03:00,0.494,0.755,0.476,0.921,0.657,0.310,0.543,0.511,��,4.3,��
2024/04/12,03:10,0.494,0.755,0.476,0.920,0.655,0.309,0.543,0.510,��,3.3,��
2024/04/12,03:20,0.494,0.756,0.475,0.920,0.657,0.310,0.543,0.511,��,2.0,��
2024/04/12,03:30,0.496,0.753,0.476,0.921,0.657,0.309,0.542,0.511,��쓌,2.0,��
2024/04/12,03:40,0.494,0.754,0.477,0.921,0.656,0.309,0.543,0.513,��쓌,3.1,��
2024/04/12,03:50,0.495,0.753,0.476,0.918,0.659,0.309,0.543,0.509,��쓌,4.0,��
2024/04/12,04:00,0.495,0.754,0.475,0.922,0.656,0.310,0.543,0.511,��쓌,2.9,��
2024/04/12,04:10,0.496,0.754,0.476,0.920,0.656,0.310,0.543,0.509,��쓌,3.1,��
2024/04/12,04:20,0.496,0.754,0.476,0.921,0.658,0.310,0.543,0.511,��쓌,2.5,��
2024/04/12,04:30,0.494,0.755,0.476,0.920,0.658,0.310,0.543,0.511,��쓌,2.0,��
2024/04/12,04:40,0.495,0.754,0.476,0.921,0.656,0.311,0.542,0.512,��,2.0,��
2024/04/12,04:50,0.496,0.753,0.476,0.919,0.658,0.311,0.545,0.512,��,1.7,��
2024/04/12,05:00,0.494,0.753,0.477,0.919,0.658,0.310,0.543,0.510,��,2.0,��
2024/04/12,05:10,0.495,0.755,0.475,0.921,0.658,0.309,0.542,0.511,��,1.4,��
2024/04/12,05:20,0.495,0.753,0.477,0.922,0.658,0.310,0.543,0.510,��,1.2,��
2024/04/12,05:30,0.495,0.753,0.476,0.921,0.657,0.311,0.543,0.511,��,0.9,��
2024/04/12,05:40,0.494,0.754,0.476,0.920,0.656,0.309,0.542,0.510,��,1.1,��
2024/04/12,05:50,0.495,0.753,0.477,0.922,0.656,0.310,0.543,0.511,��,1.1,��
2024/04/12,06:00,0.494,0.754,0.477,0.919,0.657,0.309,0.542,0.512,��,1.4,��
2024/04/12,06:10,0.495,0.753,0.477,0.920,0.658,0.309,0.544,0.511,��쐼,1.2,��
2024/04/12,06:20,0.495,0.754,0.476,0.920,0.658,0.309,0.543,0.512,�쐼,0.9,��
2024/04/12,06:30,0.494,0.755,0.477,0.922,0.657,0.310,0.542,0.510,�쐼,1.2,��
2024/04/12,06:40,0.495,0.753,0.477,0.920,0.659,0.310,0.542,0.510,��쐼,0.9,��
2024/04/12,06:50,0.494,0.753,0.475,0.921,0.658,0.310,0.543,0.511,��,0.9,��
2024/04/12,07:00,0.495,0.754,0.476,0.919,0.660,0.309,0.543,0.511,��,0.6,��
2024/04/12,07:10,0.495,0.754,0.478,0.920,0.657,0.310,0.542,0.513,-,CALM,��
2024/04/12,07:20,0.495,0.754,0.475,0.921,0.658,0.310,0.542,0.511,-,CALM,��
2024/04/12,07:30,0.496,0.755,0.478,0.921,0.658,0.310,0.543,0.511,-,CALM,��
2024/04/12,07:40,0.494,0.756,0.476,0.920,0.659,0.310,0.543,0.512,�k,0.8,��
2024/04/12,07:50,0.495,0.756,0.477,0.920,0.658,0.311,0.541,0.512,�k��,0.6,��
2024/04/12,08:00,0.494,0.755,0.478,0.924,0.658,0.310,0.544,0.512,�k,1.2,��
2024/04/12,08:10,0.495,0.756,0.477,0.922,0.659,0.310,0.543,0.511,�k�k��,1.2,��
2024/04/12,08:20,0.497,0.754,0.478,0.921,0.657,0.308,0.543,0.510,�k��,1.1,��
2024/04/12,08:30,0.496,0.754,0.478,0.924,0.659,0.307,0.543,0.511,�k,1.1,��
2024/04/12,08:40,0.497,0.753,0.478,0.922,0.660,0.309,0.542,0.510,�k�k��,1.2,��
2024/04/12,08:50,0.495,0.751,0.479,0.922,0.659,0.308,0.542,0.508,�k��,1.5,��
2024/04/12,09:00,0.492,0.753,0.478,0.922,0.659,0.308,0.542,0.509,�k�k��,1.7,��
2024/04/12,09:10,0.494,0.752,0.478,0.923,0.657,0.307,0.539,0.510,�k�k��,2.3,��
2024/04/12,09:20,0.494,0.753,0.477,0.922,0.657,0.308,0.540,0.510,�k�k��,2.6,��
2024/04/12,09:30,0.493,0.753,0.479,0.922,0.658,0.308,0.542,0.510,�k�k��,2.8,��
2024/04/12,09:40,0.492,0.753,0.477,0.921,0.657,0.308,0.541,0.510,�k�k��,2.6,��
2024/04/12,09:50,0.493,0.753,0.478,0.922,0.657,0.307,0.543,0.511,�k�k��,2.3,��
2024/04/12,10:00,0.493,0.753,0.478,0.921,0.657,0.308,0.541,0.512,�k��,2.8,��
2024/04/12,10:10,0.495,0.753,0.477,0.923,0.659,0.309,0.541,0.510,�k��,3.6,��
2024/04/12,10:20,0.495,0.754,0.476,0.922,0.658,0.309,0.542,0.511,�k�k��,3.7,��
2024/04/12,10:30,0.493,0.751,0.477,0.921,0.656,0.306,0.542,0.509,�k��,3.3,��
2024/04/12,10:40,0.495,0.754,0.476,0.922,0.658,0.308,0.542,0.511,�k��,3.5,��
2024/04/12,10:50,0.494,0.754,0.475,0.921,0.656,0.308,0.542,0.509,�k�k��,3.1,��
2024/04/12,11:00,0.494,0.755,0.473,0.922,0.657,0.309,0.544,0.510,�k��,2.9,��
2024/04/12,11:10,0.493,0.752,0.467,0.924,0.657,0.309,0.542,0.511,�k��,2.3,��
2024/04/12,11:20,0.493,0.752,0.466,0.922,0.657,0.309,0.543,0.510,���k��,2.2,��
2024/04/12,11:30,0.493,0.753,0.468,0.921,0.658,0.308,0.542,0.510,���k��,2.3,��
2024/04/12,11:40,0.494,0.753,0.476,0.920,0.657,0.309,0.542,0.510,�k��,2.2,��
2024/04/12,11:50,0.493,0.754,0.479,0.922,0.652,0.308,0.543,0.510,���k��,1.7,��
2024/04/12,12:00,0.493,0.755,0.478,0.924,0.647,0.309,0.543,0.511,���k��,1.4,��
2024/04/12,12:10,0.495,0.754,0.478,0.924,0.650,0.307,0.544,0.511,�k��,1.2,��
2024/04/12,12:20,0.494,0.755,0.478,0.924,0.649,0.309,0.544,0.511,��,1.2,��
2024/04/12,12:30,0.494,0.753,0.476,0.922,0.654,0.309,0.543,0.511,��,1.5,��
2024/04/12,12:40,0.494,0.752,0.475,0.921,0.658,0.309,0.542,0.513,��,1.5,��
2024/04/12,12:50,0.495,0.753,0.477,0.924,0.658,0.308,0.544,0.511,��,1.5,��
2024/04/12,13:00,0.495,0.754,0.477,0.924,0.659,0.308,0.545,0.510,��,1.5,��
2024/04/12,13:10,0.493,0.754,0.478,0.923,0.657,0.308,0.543,0.510,���k��,1.5,��
2024/04/12,13:20,0.494,0.753,0.477,0.925,0.658,0.309,0.543,0.510,��,1.9,��
2024/04/12,13:30,0.494,0.754,0.477,0.924,0.657,0.308,0.544,0.510,��,1.9,��
2024/04/12,13:40,0.494,0.755,0.477,0.924,0.658,0.308,0.543,0.510,���k��,1.4,��
2024/04/12,13:50,0.495,0.754,0.476,0.925,0.659,0.309,0.542,0.511,��,1.5,��
2024/04/12,14:00,0.494,0.755,0.478,0.924,0.658,0.307,0.544,0.512,��,1.9,��
2024/04/12,14:10,0.492,0.755,0.477,0.922,0.658,0.309,0.544,0.509,��,1.4,��
2024/04/12,14:20,0.494,0.754,0.476,0.923,0.660,0.308,0.544,0.510,��,1.7,��
2024/04/12,14:30,0.494,0.755,0.478,0.926,0.658,0.310,0.544,0.512,���쓌,1.5,��
2024/04/12,14:40,0.495,0.755,0.480,0.923,0.660,0.311,0.543,0.511,���쓌,1.5,��
2024/04/12,14:50,0.496,0.756,0.480,0.925,0.659,0.308,0.543,0.511,�쓌,2.2,��
2024/04/12,15:00,0.496,0.758,0.480,0.924,0.659,0.309,0.543,0.511,�쓌,2.2,��
2024/04/12,15:10,0.497,0.758,0.479,0.924,0.660,0.311,0.543,0.511,��쓌,2.3,��
2024/04/12,15:20,0.497,0.760,0.480,0.924,0.659,0.310,0.544,0.512,���쓌,2.5,��
2024/04/12,15:30,0.497,0.760,0.479,0.922,0.658,0.310,0.543,0.512,�쓌,2.3,��
2024/04/12,15:40,0.496,0.758,0.480,0.926,0.659,0.309,0.542,0.511,�쓌,3.1,��
2024/04/12,15:50,0.496,0.758,0.478,0.924,0.658,0.309,0.544,0.510,�쓌,2.3,��
2024/04/12,16:00,0.494,0.754,0.477,0.924,0.659,0.308,0.543,0.511,�쓌,2.5,��
2024/04/12,16:10,0.494,0.755,0.478,0.926,0.657,0.309,0.544,0.511,���쓌,2.5,��
2024/04/12,16:20,0.493,0.757,0.477,0.925,0.659,0.309,0.543,0.509,��,2.5,��
2024/04/12,16:30,0.495,0.754,0.475,0.927,0.659,0.311,0.543,0.510,���쓌,1.7,��
2024/04/12,16:40,0.494,0.757,0.476,0.925,0.659,0.309,0.545,0.511,���쓌,2.0,��
2024/04/12,16:50,0.494,0.757,0.476,0.926,0.659,0.310,0.542,0.509,�쓌,2.9,��
2024/04/12,17:00,0.495,0.757,0.477,0.927,0.659,0.310,0.543,0.511,���쓌,1.9,��
2024/04/12,17:10,0.494,0.757,0.478,0.925,0.657,0.311,0.544,0.511,���쓌,2.5,��
2024/04/12,17:20,0.496,0.757,0.479,0.924,0.659,0.310,0.542,0.511,���쓌,2.3,��
2024/04/12,17:30,0.495,0.757,0.479,0.925,0.661,0.310,0.543,0.512,���쓌,2.0,��
2024/04/12,17:40,0.496,0.757,0.477,0.926,0.658,0.311,0.542,0.513,���쓌,1.9,��
2024/04/12,17:50,0.496,0.759,0.477,0.927,0.658,0.310,0.543,0.514,���쓌,2.2,��
2024/04/12,18:00,0.497,0.759,0.477,0.922,0.658,0.311,0.543,0.512,���쓌,1.9,��
2024/04/12,18:10,0.496,0.759,0.478,0.926,0.660,0.312,0.543,0.513,��,2.6,��
2024/04/12,18:20,0.499,0.759,0.478,0.924,0.660,0.310,0.545,0.512,��,2.0,��
2024/04/12,18:30,0.494,0.759,0.479,0.924,0.661,0.311,0.543,0.513,��,2.2,��
2024/04/12,18:40,0.495,0.757,0.478,0.923,0.663,0.311,0.544,0.513,��,2.2,��
2024/04/12,18:50,0.496,0.759,0.479,0.925,0.661,0.312,0.544,0.512,���k��,2.2,��
2024/04/12,19:00,0.497,0.760,0.479,0.924,0.661,0.311,0.544,0.513,���k��,1.9,��
2024/04/12,19:10,0.495,0.759,0.478,0.925,0.662,0.311,0.544,0.511,���k��,2.0,��
2024/04/12,19:20,0.496,0.759,0.478,0.924,0.662,0.310,0.544,0.513,�k��,1.5,��
2024/04/12,19:30,0.496,0.758,0.480,0.925,0.663,0.311,0.542,0.512,�k��,1.7,��
2024/04/12,19:40,0.496,0.757,0.478,0.924,0.662,0.311,0.544,0.513,�k��,1.7,��
2024/04/12,19:50,0.496,0.758,0.478,0.925,0.662,0.309,0.544,0.512,�k��,1.5,��
2024/04/12,20:00,0.497,0.758,0.477,0.925,0.663,0.311,0.544,0.512,�k��,2.0,��
2024/04/12,20:10,0.496,0.757,0.479,0.924,0.661,0.310,0.543,0.511,�k�k��,1.5,��
2024/04/12,20:20,0.496,0.758,0.478,0.924,0.662,0.311,0.544,0.512,�k,1.7,��
2024/04/12,20:30,0.496,0.757,0.477,0.924,0.662,0.310,0.544,0.511,�k,1.4,��
2024/04/12,20:40,0.495,0.757,0.479,0.924,0.662,0.311,0.546,0.511,�k�k��,1.5,��
2024/04/12,20:50,0.495,0.758,0.476,0.926,0.665,0.311,0.544,0.512,�k,1.7,��
2024/04/12,21:00,0.495,0.757,0.478,0.925,0.663,0.310,0.543,0.512,�k,1.9,��
2024/04/12,21:10,0.497,0.757,0.477,0.923,0.662,0.310,0.544,0.512,�k,2.2,��
2024/04/12,21:20,0.495,0.757,0.479,0.925,0.663,0.311,0.543,0.511,�k,2.2,��
2024/04/12,21:30,0.495,0.758,0.477,0.924,0.663,0.310,0.544,0.513,�k,2.0,��
2024/04/12,21:40,0.496,0.757,0.478,0.924,0.662,0.310,0.544,0.512,�k,2.3,��
2024/04/12,21:50,0.495,0.758,0.478,0.927,0.660,0.311,0.544,0.512,�k,2.3,��
2024/04/12,22:00,0.497,0.758,0.475,0.925,0.662,0.311,0.544,0.513,�k�k��,2.9,��
2024/04/12,22:10,0.495,0.756,0.479,0.926,0.662,0.312,0.543,0.512,�k�k��,3.1,��
2024/04/12,22:20,0.496,0.757,0.478,0.926,0.663,0.311,0.544,0.512,�k�k��,3.1,��
2024/04/12,22:30,0.496,0.758,0.477,0.923,0.663,0.310,0.544,0.510,�k�k��,3.5,��
2024/04/12,22:40,0.496,0.757,0.478,0.924,0.661,0.311,0.543,0.512,�k�k��,3.9,��
2024/04/12,22:50,0.495,0.757,0.479,0.925,0.660,0.310,0.544,0.512,�k�k��,3.5,��
2024/04/12,23:00,0.495,0.757,0.477,0.924,0.661,0.310,0.543,0.512,�k�k��,4.0,��
2024/04/12,23:10,0.495,0.755,0.478,0.924,0.663,0.311,0.544,0.511,�k�k��,4.0,��
2024/04/12,23:20,0.495,0.758,0.478,0.925,0.660,0.310,0.545,0.512,�k�k��,4.5,��
2024/04/12,23:30,0.494,0.757,0.478,0.925,0.661,0.311,0.544,0.510,�k�k��,3.8,��
2024/04/12,23:40,0.496,0.757,0.479,0.924,0.662,0.310,0.544,0.512,�k�k��,4.6,��
2024/04/12,23:50,0.495,0.758,0.477,0.925,0.662,0.311,0.543,0.512,�k�k��,4.4,��
